Wind_Speed
32 33 33 33 32 32 32 32 32 27 19 11 8 9 8 9 4 9 12 11 11 9 6 5 8 6 3 3 3 2 4 2 2 2 3 1 1 1 1 3 5 2 5 9 2 5 3 2 4 3 5 9 7 4 2 3 5 5 4 4 5 1 2 4 5 4 8 7 4 6 5 5 2 1 5 5 6 7 7 7 7 7 6 8 6 2 3
32 33 34 33 32 32 31 30 29 27 22 18 14 10 8 13 8 9 12 11 11 9 6 4 6 5 4 4 4 2 2 3 1 2 1 2 1 1 2 1 4 2 3 9 7 3 2 3 1 1 7 8 4 4 2 4 4 3 5 5 4 3 1 2 5 4 3 3 2 1 2 3 3 3 5 6 7 9 8 7 6 5 7 10 7 3 4
32 33 34 34 33 32 31 29 26 24 22 19 17 12 10 15 10 10 14 12 12 12 6 2 4 6 7 5 5 5 2 3 4 2 2 3 1 1 1 0 2 1 1 5 5 4 3 1 0 1 4 7 5 4 1 2 5 8 8 7 6 5 4 4 5 5 4 4 4 3 4 5 6 5 5 6 7 10 8 6 5 5 9 10 6 4 5
31 33 35 34 34 33 32 29 24 20 19 18 16 12 9 10 6 7 12 12 14 14 9 5 7 8 7 5 4 5 5 4 2 4 3 4 4 2 1 1 3 1 2 4 2 1 3 1 1 4 1 6 6 3 1 2 6 7 7 7 5 4 6 6 4 4 6 7 5 5 6 7 7 8 8 7 8 10 8 5 4 6 8 5 6 6 2
31 32 34 35 34 34 32 31 25 18 16 18 16 11 8 7 6 3 5 9 12 12 11 12 11 5 2 2 4 4 3 5 1 4 3 2 4 2 2 3 3 2 2 3 2 3 4 2 3 5 1 6 6 3 2 3 5 3 2 3 3 4 6 6 4 4 6 7 6 6 6 7 8 9 9 8 8 8 7 5 6 8 7 2 6 8 5
30 32 34 35 35 34 33 32 28 19 15 17 17 12 8 6 6 8 8 3 6 7 8 12 10 3 6 3 4 5 4 2 0 3 2 1 4 3 0 3 5 6 5 4 3 3 4 3 4 4 0 1 4 6 6 5 6 2 7 4 0 4 6 7 6 4 3 4 3 5 5 5 6 6 6 7 6 7 7 5 6 7 6 3 5 8 8
29 31 32 35 35 34 33 32 30 24 15 14 16 13 11 10 8 11 16 10 5 8 8 11 11 4 5 2 4 5 3 3 1 3 4 1 5 6 2 5 7 6 5 4 4 3 2 3 2 2 3 5 3 3 4 4 5 3 5 2 3 2 5 7 8 6 6 5 2 2 4 4 4 3 3 5 4 3 3 4 6 7 7 8 8 8 10
28 30 31 34 34 34 34 32 31 28 18 12 15 15 14 12 9 12 18 14 8 12 10 9 9 3 3 1 3 3 3 4 3 1 5 4 4 6 6 6 6 5 5 4 4 7 6 5 6 6 5 5 5 4 3 3 2 1 3 2 3 2 2 4 5 7 10 7 5 2 3 2 4 3 1 2 4 1 1 5 8 7 7 9 9 5 6
27 29 30 32 34 34 33 32 31 30 24 17 16 16 17 13 8 10 12 11 10 10 7 5 6 4 4 3 3 3 2 1 1 2 4 6 6 7 8 7 4 2 2 4 6 8 7 6 6 6 7 6 5 5 5 5 4 3 3 1 2 2 2 2 3 7 8 4 6 4 3 2 6 5 3 2 2 2 3 6 8 6 4 6 8 4 4
26 27 29 30 32 33 33 32 31 30 27 24 19 18 21 17 9 8 9 7 9 10 6 5 6 3 1 2 3 4 3 1 1 2 1 3 4 6 7 7 6 2 4 5 6 6 7 7 6 6 7 7 7 6 5 5 6 5 4 1 1 3 5 4 3 4 3 1 5 3 2 4 5 2 4 3 2 3 4 5 7 7 4 4 5 4 3
25 26 27 29 30 32 32 31 31 30 28 27 23 18 22 23 15 12 12 6 7 11 8 5 3 2 2 4 4 4 3 1 1 3 1 3 4 6 7 6 6 3 6 7 6 6 6 7 7 7 7 7 7 6 6 5 4 5 5 4 2 1 4 6 4 4 3 2 1 1 3 4 1 6 7 7 6 5 5 6 5 4 4 2 2 3 4
25 25 26 27 28 30 31 29 28 28 27 26 22 16 17 22 19 12 11 7 6 11 8 2 1 1 4 7 7 4 2 1 1 4 4 4 5 6 7 7 6 4 5 6 5 4 5 5 5 5 6 6 5 5 5 3 2 4 6 5 4 1 3 5 3 3 4 3 1 3 4 0 5 7 6 6 6 6 6 5 2 3 4 1 1 3 6
25 25 25 26 27 28 30 29 26 26 25 24 21 16 15 21 20 13 11 7 4 9 8 1 2 3 3 5 5 2 2 4 4 4 4 3 3 5 6 6 6 5 5 5 4 5 5 3 2 3 4 4 4 4 4 3 1 3 3 2 4 4 4 4 3 3 3 3 4 4 1 6 8 7 5 3 3 6 6 4 3 4 3 4 5 5 6
24 24 24 25 26 26 28 28 26 24 23 22 21 16 14 20 22 16 11 6 4 9 10 6 3 4 4 4 3 1 2 1 3 3 2 3 3 5 7 6 5 5 5 3 2 5 4 1 2 3 3 4 4 3 3 3 1 2 2 2 3 4 4 3 2 2 3 5 4 1 6 8 5 5 6 5 5 7 6 4 4 8 8 8 7 5 6
23 24 24 24 24 25 26 27 27 24 22 21 20 16 14 19 23 18 11 7 6 8 8 9 10 10 6 3 4 3 3 3 3 2 1 2 2 2 4 5 5 4 4 3 3 3 3 3 4 4 4 4 4 3 3 3 3 1 1 2 2 2 2 2 3 3 3 4 4 3 3 3 2 4 7 8 6 6 4 3 2 9 12 10 7 7 8
22 23 23 23 23 24 25 26 26 25 23 21 19 16 14 18 22 18 13 8 6 5 8 11 14 13 8 5 4 6 6 3 2 2 2 2 1 2 2 3 4 3 3 4 4 3 3 4 4 4 2 1 1 3 2 1 4 5 3 1 3 3 2 1 4 5 4 4 5 4 2 2 3 3 6 7 5 4 4 4 1 7 11 10 8 8 8
21 21 22 23 23 23 23 25 26 24 23 21 19 16 15 18 21 18 14 10 8 5 8 12 13 10 7 7 5 5 7 5 4 5 2 2 2 1 2 2 3 2 3 4 3 3 4 4 4 4 2 2 1 1 2 3 3 5 5 3 2 3 3 2 4 5 3 4 5 2 3 4 5 6 5 5 4 5 6 3 1 7 9 9 9 9 9
19 20 21 22 22 23 22 23 25 24 22 20 18 15 14 17 20 17 13 11 10 6 7 11 12 9 7 9 7 6 8 7 5 6 3 0 2 1 3 4 4 1 1 4 3 3 4 4 4 4 1 3 1 1 1 2 4 0 3 1 1 2 3 3 5 5 2 3 4 1 5 5 5 6 5 6 5 4 4 1 2 5 8 8 8 10 9
18 19 21 21 22 22 22 22 23 24 22 20 17 14 14 17 18 16 14 12 10 7 7 9 10 10 9 9 8 7 6 6 5 6 5 1 4 7 5 4 4 3 1 3 3 3 4 5 3 3 2 2 1 1 1 0 2 3 3 2 3 3 3 3 5 5 3 3 2 3 6 4 7 4 6 8 7 3 1 3 1 3 7 8 8 9 9
16 18 20 21 21 22 22 21 22 22 22 21 18 14 13 14 16 13 12 14 13 10 7 8 9 9 9 9 9 9 8 7 6 6 5 4 7 9 7 3 2 3 2 3 3 3 4 4 2 2 2 1 2 2 1 2 2 3 3 2 2 3 3 3 2 2 2 3 2 2 3 3 7 5 4 7 5 2 3 3 2 4 7 7 8 9 9
15 17 19 20 21 21 21 21 21 22 22 20 18 16 13 11 12 9 8 11 12 9 6 7 7 7 7 7 7 7 7 8 8 7 7 7 6 5 4 2 1 2 3 3 4 2 2 3 2 2 1 1 2 2 2 2 3 3 3 2 1 2 3 3 3 4 4 3 2 3 4 6 8 6 4 5 5 4 3 4 4 5 6 7 8 9 10
14 16 18 20 20 21 21 21 20 20 21 20 17 16 14 11 9 6 6 8 9 9 9 8 6 4 4 4 3 4 4 5 6 6 6 8 7 5 5 4 5 4 6 7 5 3 3 4 3 3 3 1 2 1 1 1 1 3 3 1 0 3 3 3 3 4 3 4 5 5 4 6 8 6 7 7 5 4 5 6 5 5 6 7 8 9 10
13 14 16 18 20 20 21 21 20 19 20 20 18 16 16 14 10 6 5 6 9 12 11 8 6 3 1 3 3 3 2 2 4 4 3 5 8 6 3 4 7 5 5 6 5 4 6 6 4 4 4 2 3 1 2 2 2 4 4 2 2 5 2 1 1 2 4 5 4 4 5 5 6 8 9 7 5 5 6 6 5 6 7 8 9 10 11
13 14 15 17 19 20 20 20 20 18 18 19 18 16 15 15 14 12 7 6 9 10 8 8 7 3 2 3 4 3 1 1 3 3 1 2 6 5 2 5 7 6 5 7 5 5 7 7 4 4 4 3 3 4 4 1 1 2 2 4 6 5 2 2 2 2 1 2 2 2 5 7 5 5 4 4 4 5 5 5 5 6 8 8 9 10 12
15 14 15 16 18 19 20 20 20 18 17 17 16 15 13 12 13 14 11 8 10 10 7 6 2 2 2 4 3 1 1 2 2 2 1 1 4 6 5 5 5 5 6 7 5 5 6 5 3 4 3 1 1 3 3 2 3 3 2 1 5 3 2 2 3 2 0 3 3 3 4 6 5 3 3 4 5 5 4 5 6 7 9 9 10 11 13
16 15 14 16 17 18 19 20 19 18 17 16 16 16 13 11 12 13 12 11 11 9 8 5 1 3 2 3 1 0 3 2 1 1 1 2 3 4 4 4 4 4 4 5 4 4 6 5 4 5 2 1 1 2 2 2 1 0 1 3 5 2 1 0 1 1 1 4 5 4 2 4 4 3 1 2 3 3 4 5 6 8 10 10 11 13 14
17 16 15 15 17 18 19 19 19 18 16 14 15 15 11 8 10 12 14 15 11 5 5 6 6 3 1 1 0 1 2 2 2 2 1 2 3 2 2 2 3 4 4 4 3 3 5 5 4 3 1 2 1 2 3 2 2 2 2 3 3 1 2 2 1 1 1 4 4 5 2 1 3 4 2 2 2 4 5 6 7 10 11 12 13 15 15
16 16 16 15 16 17 19 19 19 17 15 14 13 12 8 6 8 10 12 13 10 5 6 13 15 10 3 0 0 1 1 2 2 2 2 1 2 1 1 2 4 5 4 4 3 3 5 4 1 1 2 1 1 0 1 0 2 2 1 4 6 5 6 6 3 2 5 5 4 4 4 2 3 5 5 4 4 5 6 8 10 12 12 13 14 16 17
15 16 15 15 15 16 18 19 19 17 15 13 12 10 6 4 3 8 12 12 11 8 10 14 16 11 4 1 2 1 1 1 1 2 2 2 2 2 1 2 4 5 3 2 3 4 2 2 4 3 2 3 2 1 3 4 3 2 5 8 8 7 7 7 5 5 6 6 4 4 4 4 4 4 3 4 5 6 7 9 11 13 13 14 15 16 17
16 16 15 14 15 16 18 19 19 16 14 13 12 10 5 2 4 8 12 13 11 9 8 8 9 9 7 3 2 2 2 2 3 3 3 2 2 2 1 2 2 4 4 2 3 3 1 2 3 3 2 3 4 3 3 3 3 6 7 8 8 6 6 8 7 6 6 5 4 3 2 3 3 3 3 4 4 6 9 11 12 13 14 15 16 17 17
16 16 15 14 14 15 17 19 19 16 14 11 10 8 4 3 6 10 13 12 10 8 8 8 9 12 10 4 4 4 4 4 4 3 3 2 3 3 1 2 3 4 5 3 2 2 1 2 2 1 1 1 2 3 5 3 3 7 8 8 8 8 9 10 8 6 5 4 2 2 3 2 2 3 4 5 6 8 11 12 12 14 15 15 16 17 17
18 18 16 15 14 15 17 18 18 16 13 9 8 8 7 7 10 12 12 11 8 6 7 7 8 10 7 5 7 6 5 4 4 4 4 4 4 4 1 2 1 1 4 2 2 2 1 3 4 4 4 1 1 3 4 2 4 8 8 8 7 7 9 8 6 5 4 3 3 4 4 3 5 5 5 7 9 10 11 13 13 14 15 16 16 17 17
19 18 16 15 15 15 17 18 17 15 12 9 8 8 7 7 9 10 11 11 8 5 6 6 6 6 3 3 6 7 6 6 6 6 5 1 0 3 4 2 1 2 2 3 3 2 1 5 4 4 5 1 3 4 3 2 6 6 7 9 8 7 6 5 4 4 2 2 3 5 5 6 7 7 7 8 10 10 11 13 14 15 16 16 16 16 16
20 18 17 16 15 15 17 17 16 14 10 7 6 7 8 8 10 10 10 9 7 5 6 7 6 4 3 3 5 7 8 7 7 7 3 2 2 2 3 2 3 4 5 4 3 1 2 4 2 3 3 3 4 3 2 3 8 8 9 10 9 7 5 3 2 1 1 2 3 4 5 5 6 7 8 9 10 11 12 12 14 15 15 15 15 15 15
21 19 18 16 15 16 17 16 15 12 8 5 7 11 13 12 12 12 9 6 5 5 6 8 7 4 4 6 3 8 8 6 5 4 1 1 2 6 5 3 4 3 2 2 3 3 3 1 1 2 2 4 4 2 1 6 10 10 8 8 7 4 3 2 0 0 1 1 3 4 5 6 7 8 9 10 11 12 12 13 13 14 14 14 15 15 15
21 18 16 15 14 15 16 15 13 10 6 6 9 12 13 12 13 13 10 7 8 7 5 7 7 5 5 4 1 5 6 4 5 4 2 2 3 4 6 4 3 3 3 4 6 4 3 3 2 1 1 2 2 2 6 9 9 8 7 6 5 3 3 3 2 1 1 2 4 5 5 7 9 9 9 11 11 12 13 13 13 13 14 15 15 15 15
15 14 13 11 11 12 13 12 10 8 8 8 11 13 13 13 12 11 9 9 10 10 8 8 7 6 6 4 1 4 5 2 6 6 5 4 3 4 5 5 1 3 3 6 5 2 5 4 3 4 1 3 3 6 9 9 8 8 8 6 5 4 3 3 2 1 2 4 5 5 6 7 9 8 9 11 11 12 13 13 13 13 14 15 15 15 15
10 10 9 6 6 9 9 8 10 11 10 8 8 10 10 9 7 6 6 7 7 9 10 9 7 9 10 5 3 5 4 1 4 5 4 3 2 2 4 4 0 1 3 4 2 5 5 3 4 4 2 8 10 9 9 9 9 9 8 6 6 5 3 3 2 2 3 4 5 5 6 8 9 9 10 11 12 13 13 13 13 14 14 14 15 15 15
8 7 6 6 7 7 6 3 8 11 11 8 6 6 6 6 5 5 6 7 6 8 10 11 11 13 11 6 5 6 5 4 5 4 3 3 2 0 1 2 1 1 5 4 4 5 5 4 3 4 3 9 12 11 10 11 10 9 8 7 6 5 4 3 2 1 2 3 5 5 7 8 10 10 11 13 13 13 13 13 14 14 14 14 15 15 15
5 6 6 7 8 6 3 2 3 6 6 6 5 5 5 6 6 5 5 6 6 7 9 10 11 13 11 8 6 5 4 4 4 2 1 3 2 1 2 2 1 1 5 3 5 6 5 3 2 3 3 8 12 12 12 12 11 10 9 8 7 5 4 2 1 2 3 4 5 6 7 8 10 11 12 12 13 14 14 14 14 14 14 15 15 14 15
3 5 6 7 6 6 4 4 4 5 6 6 5 5 5 5 6 6 5 4 5 6 9 10 10 10 10 9 7 5 5 4 3 4 3 3 3 3 4 1 2 2 5 2 3 4 4 3 3 3 4 10 13 13 12 12 11 10 9 8 6 5 2 0 1 3 4 5 6 7 8 9 10 11 11 12 13 13 14 14 15 15 15 15 15 14 15
10 11 10 8 6 5 5 5 5 6 6 6 5 4 4 5 6 6 6 5 5 5 8 9 7 7 9 9 6 4 4 4 4 5 4 1 2 3 4 1 1 4 4 1 2 4 4 4 3 1 7 12 14 13 12 12 11 10 9 7 6 3 1 1 3 4 5 6 7 8 9 9 10 11 11 12 13 13 14 15 15 15 15 15 14 14 14
13 12 9 8 7 6 6 7 7 6 5 3 3 2 4 5 5 5 5 7 8 5 7 9 6 5 7 8 5 6 4 3 4 5 3 1 1 1 3 2 3 3 0 2 1 4 4 3 2 5 10 14 14 13 12 12 11 10 8 7 5 3 1 1 3 6 6 7 9 9 9 10 11 11 11 12 13 14 14 15 15 15 15 15 15 15 14
9 8 7 6 7 7 6 6 7 7 4 3 4 4 4 6 6 5 4 7 8 7 7 9 8 7 7 6 5 5 4 3 3 5 5 3 2 2 3 4 4 2 1 1 4 5 4 1 4 11 14 14 13 13 12 12 11 10 8 6 5 3 1 3 5 7 8 8 10 10 10 10 11 11 12 13 13 13 15 15 15 16 16 15 16 17 16
6 7 7 5 5 6 5 4 6 7 5 4 5 6 5 6 7 5 4 7 8 7 7 9 9 8 8 7 5 4 4 5 3 4 3 2 2 4 3 1 1 2 1 3 4 5 3 3 8 13 14 13 12 13 12 11 10 9 8 6 4 3 2 4 7 9 9 9 10 10 10 11 12 12 13 13 13 14 15 15 15 16 16 16 17 18 18
6 9 9 4 2 4 5 3 3 5 5 6 8 10 9 7 5 3 4 7 8 7 8 9 9 9 9 7 3 2 5 6 5 4 3 3 3 3 1 2 1 2 3 5 5 4 2 6 10 12 14 14 13 13 11 10 8 7 6 3 2 2 3 6 8 9 10 10 11 10 10 11 12 13 13 14 14 14 15 15 15 16 17 17 18 18 18
6 9 9 5 2 5 7 5 5 7 8 9 12 16 13 6 1 1 3 4 6 7 9 9 8 7 7 6 3 3 5 5 3 2 3 3 3 1 1 1 2 3 4 4 3 1 5 9 11 12 13 14 13 12 11 9 7 5 4 2 3 4 6 8 9 10 10 11 11 11 10 11 12 13 14 15 15 15 15 15 16 17 17 18 19 18 17
6 7 7 5 3 4 7 8 9 11 12 11 13 14 11 5 3 4 5 4 4 7 9 10 8 6 6 6 5 3 4 4 3 3 3 3 3 2 2 2 3 4 4 2 2 5 7 9 12 12 12 12 11 11 10 8 5 4 4 5 6 7 8 9 10 10 11 11 11 11 12 12 13 13 14 15 16 16 16 16 17 18 18 18 20 20 17
6 5 5 6 6 8 11 13 12 12 14 13 12 11 9 5 5 7 7 6 5 6 7 8 7 5 4 5 4 3 3 4 3 2 3 3 3 3 3 3 4 6 5 2 5 9 10 11 12 10 9 8 8 7 6 5 4 5 6 7 8 9 9 10 11 12 12 12 11 12 13 13 13 14 14 15 16 17 17 17 18 18 18 17 19 19 16
7 6 7 9 9 8 11 13 11 9 11 12 10 8 8 8 7 7 7 6 7 7 8 7 7 5 3 3 3 3 3 3 2 2 4 4 4 3 4 5 4 3 2 4 9 12 13 11 9 8 6 5 4 3 3 4 5 7 7 8 9 10 11 12 13 13 13 12 12 12 13 14 14 14 14 15 17 17 17 17 18 18 17 17 18 17 16
7 7 10 13 13 11 8 6 6 7 9 10 10 10 10 9 7 8 8 8 9 10 9 8 8 5 3 3 4 3 3 4 5 4 4 4 4 4 4 2 2 5 7 7 8 8 7 6 6 6 6 3 1 2 3 5 7 8 8 9 9 11 12 14 14 14 14 13 13 13 14 14 14 14 15 16 17 16 16 16 16 16 16 16 18 18 18
7 8 10 13 16 15 14 12 11 9 5 2 3 6 8 5 3 5 7 8 9 10 9 9 7 5 3 4 5 3 2 4 5 4 4 5 4 2 0 2 3 4 5 5 4 4 7 9 8 6 5 3 0 3 5 7 8 9 9 9 11 13 15 15 15 14 14 14 14 14 14 15 15 15 15 16 16 15 14 14 14 14 14 15 17 17 17
Wind_Direction
358 360 -0 0 1 1 1 356 351 352 353 346 322 302 273 254 222 141 165 184 178 196 233 228 228 238 217 190 163 175 242 220 147 225 280 341 319 339 21 318 332 5 326 323 289 189 242 77 109 162 123 83 67 71 80 241 240 259 292 22 39 345 259 289 297 314 322 326 83 78 341 299 237 81 42 11 351 354 338 326 324 311 316 325 323 38 110
358 0 1 1 1 2 4 360 354 352 352 348 339 328 291 276 262 167 170 184 190 217 241 226 240 247 225 199 164 167 336 15 110 187 328 327 230 73 69 355 349 7 310 329 345 327 325 78 100 192 111 97 76 63 44 266 267 350 9 18 2 311 292 336 308 298 308 321 53 104 281 311 338 4 38 20 348 352 345 326 314 314 353 356 340 32 94
358 0 1 2 2 3 4 4 359 352 351 352 343 329 303 288 271 182 174 185 203 229 245 243 281 268 243 220 177 167 132 19 347 58 61 355 20 83 88 272 312 327 264 306 334 342 326 76 6 331 101 110 95 68 32 305 5 32 25 356 327 309 322 332 305 299 315 325 337 344 323 323 324 332 22 36 7 359 347 323 318 330 351 360 2 52 106
358 1 2 2 3 3 5 5 3 356 352 352 343 329 305 293 286 173 175 186 207 234 246 234 243 248 245 228 200 199 165 143 342 357 19 5 20 21 348 301 268 230 203 249 257 253 256 215 231 264 160 111 102 95 124 68 37 33 19 341 315 296 296 289 265 273 295 299 321 353 332 316 322 330 350 22 21 5 341 319 349 344 331 6 40 25 85
359 1 2 3 3 4 6 6 5 6 1 356 348 325 289 283 301 285 207 192 206 227 227 230 241 227 186 216 219 242 216 153 121 355 352 352 6 0 357 352 334 16 352 275 236 218 229 211 257 261 112 102 117 136 185 133 90 42 310 270 283 286 283 288 279 247 264 287 323 350 327 315 330 335 346 2 8 10 3 2 17 355 326 36 59 17 355
360 1 2 4 4 3 7 8 6 11 16 12 360 332 301 298 302 312 322 266 217 234 222 233 253 192 149 188 210 212 234 208 50 357 320 320 3 347 87 49 19 24 14 313 270 239 229 225 245 246 263 89 150 167 197 163 127 224 240 203 255 300 283 295 299 273 269 291 320 337 326 326 333 340 358 354 357 23 18 19 36 9 340 6 50 43 41
0 2 2 5 5 4 7 9 9 12 20 28 18 359 347 350 336 327 337 334 271 272 263 241 247 219 140 195 226 203 221 245 246 342 315 342 14 336 328 62 30 12 15 326 312 0 324 281 318 358 331 321 309 207 200 146 130 241 257 132 85 326 295 302 305 304 297 275 232 314 321 333 326 329 16 350 346 28 12 31 49 23 3 4 9 42 64
1 2 3 5 6 6 6 9 12 12 14 32 36 24 10 358 343 330 331 327 281 261 254 233 237 228 113 180 252 220 214 228 198 29 335 341 15 345 351 36 19 0 16 356 15 40 16 348 11 6 338 332 325 319 352 46 100 278 316 35 117 134 322 325 316 296 278 246 188 213 270 305 307 290 99 342 313 337 65 47 36 16 12 4 342 351 67
2 2 4 6 7 8 7 8 12 14 16 30 35 22 8 353 333 326 324 316 297 279 253 228 238 213 173 212 259 270 249 225 108 74 4 351 0 360 3 8 342 324 47 31 40 37 358 342 6 345 328 337 326 327 1 356 318 309 329 335 161 213 283 271 243 274 281 225 174 196 218 256 286 275 151 170 286 359 26 37 46 46 22 345 327 335 54
3 2 4 6 7 9 8 8 11 13 17 26 29 17 6 359 347 335 324 296 286 289 262 232 238 216 204 256 226 236 260 43 68 244 11 37 16 1 5 353 322 319 79 53 23 1 328 322 329 313 302 304 298 296 315 313 296 302 320 317 240 281 295 292 265 279 315 130 168 197 261 271 283 358 66 72 74 57 21 20 46 56 31 345 338 340 18
3 2 4 6 7 10 10 9 10 12 15 19 21 19 7 359 351 337 329 308 268 271 259 245 256 215 234 252 219 216 234 185 222 272 316 69 33 9 14 0 327 353 49 22 343 320 303 294 290 286 279 278 275 273 275 268 260 276 286 282 285 277 277 294 303 283 299 6 97 230 289 282 65 74 57 44 46 39 8 349 3 44 64 43 328 313 352
4 3 4 5 7 9 10 11 11 11 14 15 15 21 10 357 355 342 324 320 279 275 270 228 251 250 227 228 228 239 251 166 38 358 8 33 20 14 23 13 352 4 11 343 321 295 272 259 256 259 253 247 247 246 244 222 209 241 249 264 297 305 252 270 288 270 296 355 358 273 283 26 101 86 64 51 38 13 349 331 345 80 82 43 354 10 14
4 4 4 4 6 8 9 11 11 10 12 11 11 21 11 358 3 357 330 325 291 291 307 290 197 269 269 232 221 238 35 50 25 353 344 354 14 38 42 24 3 358 342 318 300 279 265 227 221 260 235 211 225 241 219 168 169 246 241 272 306 308 297 293 283 258 271 280 264 267 151 127 119 94 78 85 58 25 6 351 35 63 35 14 43 43 9
3 4 4 3 5 7 7 9 10 9 12 9 9 20 12 359 5 4 343 336 305 307 330 355 341 309 289 264 254 214 126 158 263 282 332 338 1 59 52 25 2 350 328 299 273 269 262 217 208 227 202 205 218 209 181 148 105 340 3 27 321 310 324 325 306 264 261 272 280 188 137 143 130 93 85 84 67 46 22 349 36 52 43 37 42 32 2
0 3 4 3 4 6 7 8 7 7 11 9 9 17 13 1 4 3 345 324 306 320 357 11 350 340 333 323 320 292 233 227 239 198 171 290 305 68 46 6 358 354 321 281 264 256 247 253 245 211 187 215 212 164 160 171 154 142 340 342 313 309 332 333 313 291 277 285 285 252 185 153 117 90 71 61 63 57 20 298 24 46 43 38 28 15 5
356 0 3 3 3 4 6 7 7 6 8 9 11 18 14 3 3 4 352 328 300 328 15 4 339 327 323 332 320 287 282 320 354 305 217 194 151 93 62 358 347 343 310 277 269 271 259 253 261 252 218 203 112 97 92 222 174 152 153 268 272 252 237 275 280 276 285 282 272 278 317 73 106 94 62 48 40 14 326 264 278 32 29 27 17 4 358
353 357 1 2 2 3 4 6 7 6 7 8 9 16 17 4 0 3 1 340 310 323 15 1 339 327 329 343 346 316 317 350 352 314 318 83 60 118 113 11 318 298 306 295 268 262 267 251 249 261 239 109 78 64 40 307 247 173 158 187 238 240 228 229 251 257 262 259 265 322 62 82 77 66 58 44 15 330 293 256 61 22 10 13 6 351 352
350 353 358 1 1 2 3 5 6 5 7 9 10 16 16 2 357 3 4 342 317 329 26 11 351 354 354 337 337 342 338 342 337 308 290 231 313 334 59 12 322 229 242 299 272 254 269 261 260 274 257 100 93 259 125 288 284 58 100 112 262 260 245 242 265 269 255 243 257 96 93 73 45 53 47 4 324 287 284 307 44 11 355 0 357 346 346
349 351 355 359 1 1 1 3 6 6 5 5 9 19 17 0 354 359 4 353 333 336 18 19 4 8 4 344 349 3 342 328 333 312 284 283 356 339 331 318 293 262 245 278 276 273 267 257 256 269 247 127 104 299 102 156 328 26 41 341 302 288 256 244 265 267 259 269 281 110 104 29 346 14 47 3 317 263 54 18 17 7 354 354 353 344 342
347 350 354 356 358 1 360 0 4 6 6 4 4 14 19 359 348 355 4 355 335 325 357 20 9 7 13 12 15 16 4 359 0 335 318 358 2 324 294 234 204 256 267 256 259 262 260 263 275 264 252 120 54 329 312 138 113 38 18 316 329 336 290 276 314 331 289 280 312 65 100 29 353 359 39 18 357 54 65 8 359 16 359 350 349 343 340
342 347 352 354 356 358 358 359 1 2 5 5 1 5 10 358 347 351 357 344 327 318 350 14 3 1 14 18 14 14 16 16 10 351 335 345 353 325 303 320 325 314 335 317 288 277 290 302 330 336 310 68 69 309 306 133 126 66 22 298 290 6 311 303 21 18 329 306 30 45 49 51 42 38 54 54 54 71 50 2 1 9 2 351 343 338 337
334 342 348 352 354 355 356 357 358 360 3 3 1 3 3 360 358 347 331 330 317 300 309 329 332 331 351 5 11 11 13 10 6 353 333 333 334 306 281 308 330 349 359 339 318 329 330 310 317 324 300 215 154 171 61 1 217 135 105 271 295 61 25 343 20 32 24 48 71 80 68 45 37 55 84 83 66 51 35 22 8 358 358 349 334 332 332
323 333 341 347 351 352 354 355 354 358 1 360 0 1 358 1 9 355 318 316 311 296 288 286 274 248 137 59 33 8 352 2 7 359 339 337 331 305 283 355 351 343 350 345 335 334 327 328 352 336 309 334 8 356 175 225 232 145 130 155 98 75 57 287 342 59 93 92 86 108 108 68 39 56 78 75 41 19 16 15 7 355 347 336 326 327 327
312 323 332 340 346 348 350 353 352 353 358 359 359 356 354 1 7 359 344 327 321 311 284 259 250 215 115 26 354 343 6 21 4 0 1 338 333 328 31 23 345 331 359 360 335 295 299 316 338 316 310 11 0 299 257 225 81 82 148 165 122 78 340 232 142 79 79 119 87 72 94 89 69 62 79 84 66 48 20 0 357 343 326 322 323 324 323
302 312 322 331 339 343 346 349 349 348 351 356 358 352 350 0 7 3 356 337 325 320 294 259 223 95 4 315 290 277 337 344 338 337 277 271 325 345 14 14 339 331 343 336 303 265 278 294 289 280 292 98 202 275 307 21 51 24 310 170 111 90 301 248 130 94 122 131 98 55 73 82 62 27 20 36 49 53 19 346 334 321 315 318 325 325 323
294 300 311 322 332 337 341 343 345 346 346 350 354 350 347 359 10 8 1 343 322 298 273 264 118 91 327 302 184 348 325 301 237 285 301 244 268 321 349 351 329 317 305 292 283 282 288 288 274 272 287 99 222 299 356 23 38 65 63 71 85 124 232 23 47 296 146 116 87 54 91 104 58 22 51 63 39 12 341 330 321 317 318 321 324 324 322
287 292 300 313 323 332 338 338 339 342 341 344 353 349 341 358 10 2 359 357 345 295 261 303 343 18 10 339 340 288 296 271 225 224 243 253 258 279 317 310 297 291 271 253 251 263 261 259 263 280 3 55 300 318 14 12 304 251 162 104 90 284 321 12 326 273 87 94 63 22 354 159 45 24 38 63 20 335 329 325 316 317 323 324 323 321 320
280 283 293 305 316 327 334 334 335 338 336 339 350 346 341 22 18 341 341 356 356 326 294 303 307 306 302 12 61 232 236 254 258 233 205 214 233 236 284 283 274 273 266 261 269 255 243 249 286 23 34 3 263 198 62 275 237 235 134 86 77 55 38 33 1 359 51 74 72 25 347 323 35 35 21 5 344 331 327 320 317 322 326 324 322 320 319
275 278 286 298 310 323 330 330 330 334 331 335 347 343 342 36 21 310 327 350 349 328 308 298 294 294 288 174 145 176 252 267 240 198 173 178 199 201 198 257 275 287 281 259 278 274 254 354 17 33 29 342 311 207 194 207 190 124 86 86 85 78 67 54 32 33 55 62 61 42 358 342 15 30 357 337 344 342 326 316 318 324 323 320 319 318 317
271 275 281 292 306 318 325 325 326 328 326 332 343 337 319 230 236 287 319 337 336 327 316 302 299 305 305 282 197 205 198 193 202 179 155 162 168 158 199 214 238 297 297 259 264 281 175 91 28 28 36 346 325 293 249 214 134 94 83 88 89 89 89 77 58 58 75 70 52 46 356 331 342 329 312 329 348 331 314 312 318 320 317 316 317 315 314
267 272 278 288 301 313 319 321 321 320 320 327 334 328 310 252 270 296 313 322 325 323 309 293 285 287 283 250 195 208 197 193 202 170 149 183 169 141 279 254 209 254 289 278 244 281 257 155 164 139 121 316 323 309 292 279 120 106 90 77 70 70 81 85 73 59 64 60 19 280 253 272 314 301 309 335 339 321 312 314 317 315 314 316 315 313 316
265 269 275 287 299 306 312 315 313 312 314 313 306 302 296 284 285 294 307 316 317 308 298 289 278 278 268 186 172 197 197 194 207 190 187 214 190 159 205 283 209 286 315 313 199 202 229 227 204 149 119 103 310 293 295 328 102 121 117 99 81 68 68 75 73 57 42 18 332 295 291 357 18 358 336 333 328 319 314 314 315 315 315 315 314 316 321
263 267 272 286 297 301 305 308 305 304 305 303 303 307 305 300 299 301 306 311 305 284 280 280 272 277 281 155 162 181 188 197 209 203 197 227 149 172 200 220 121 134 205 258 250 169 214 264 246 126 102 79 288 291 300 73 101 119 118 105 97 91 81 74 71 61 31 350 340 329 334 358 2 345 330 326 320 315 316 316 317 318 317 317 319 323 326
263 266 273 285 292 294 299 301 298 296 297 300 307 303 297 307 316 308 303 307 300 268 247 254 266 279 273 235 185 171 183 204 205 193 180 42 3 286 244 193 167 180 202 250 286 272 261 277 253 122 138 206 222 268 294 97 98 92 90 91 95 102 107 106 99 71 0 326 336 338 335 335 324 317 322 323 316 314 318 319 320 321 322 323 325 326 327
262 266 273 280 284 288 292 292 288 287 287 279 274 271 272 288 304 301 294 292 282 264 234 232 245 255 262 264 210 157 177 202 187 172 209 335 251 265 266 204 179 183 183 228 255 231 220 233 125 131 173 185 185 221 49 93 91 88 93 100 104 112 114 111 126 304 347 321 314 316 315 309 307 314 322 318 313 317 320 318 319 323 323 323 324 325 326
264 267 270 272 277 283 286 283 278 274 260 245 250 256 264 280 291 292 286 264 250 257 262 252 246 233 239 269 249 165 197 195 138 147 266 269 209 245 270 250 203 157 170 224 247 230 166 139 167 211 183 170 182 121 105 107 104 103 108 108 106 108 97 80 59 357 332 298 292 302 314 314 315 320 320 315 316 321 320 317 321 326 325 323 323 323 323
261 259 260 265 276 283 282 275 264 247 231 235 248 258 270 282 284 280 275 260 244 241 251 267 271 254 248 263 244 215 231 184 139 172 225 229 194 215 245 247 214 113 188 232 240 178 141 152 221 246 186 130 134 118 115 121 122 116 116 120 120 117 103 94 88 4 330 307 305 324 333 322 318 322 321 318 319 318 318 321 327 328 324 321 320 319 318
247 245 248 249 257 268 269 250 229 230 239 257 271 273 271 272 270 256 242 237 232 228 232 244 257 259 261 265 217 216 233 174 173 202 208 193 198 225 231 232 138 80 249 251 150 135 158 182 226 250 161 124 133 134 128 127 124 121 124 129 127 123 114 105 88 21 345 323 322 336 332 319 319 323 320 316 315 316 320 326 327 323 320 318 317 316 315
222 217 217 216 226 247 266 227 207 226 249 268 279 276 254 235 237 234 214 205 209 219 222 224 231 240 248 241 208 220 240 233 221 218 184 178 204 1 251 229 123 155 256 251 139 163 218 222 200 227 195 136 137 142 137 132 130 130 130 129 129 133 128 109 76 12 340 319 315 319 317 315 318 320 316 314 316 319 322 323 321 320 319 315 313 313 314
192 186 200 219 224 233 277 302 214 224 252 258 247 251 248 231 228 226 205 201 217 222 216 215 219 225 233 235 218 213 225 232 243 267 165 173 190 282 263 236 118 210 261 238 154 181 238 248 193 224 202 144 144 148 145 141 137 135 135 135 136 137 130 109 14 316 315 312 309 311 313 315 317 318 318 319 319 320 320 318 318 319 317 313 312 312 312
193 208 221 232 220 204 230 277 254 231 247 251 234 231 237 228 229 231 218 217 231 217 204 209 213 209 215 230 230 206 193 205 253 277 254 165 155 236 252 213 94 266 272 257 148 191 241 243 230 231 147 140 148 152 148 143 139 137 138 139 138 140 146 78 335 326 321 317 312 311 313 316 318 319 320 319 316 316 316 315 315 316 313 311 311 310 310
203 211 221 237 239 224 235 251 235 218 229 235 229 237 241 225 224 228 220 227 250 221 190 199 216 207 202 209 203 163 161 189 223 255 259 140 126 249 266 298 211 245 250 155 165 222 231 229 238 187 129 138 148 150 147 144 143 143 145 144 140 140 134 354 342 330 322 319 315 313 315 318 319 318 318 316 314 313 313 313 313 313 312 310 309 308 310
196 205 221 245 254 245 236 229 215 209 220 218 203 250 261 231 218 218 214 229 250 232 176 176 195 202 196 190 150 107 117 191 219 235 235 157 108 276 275 259 244 241 98 64 255 245 240 240 212 146 141 145 149 151 150 149 148 148 149 150 153 156 144 338 329 327 326 320 315 314 314 315 315 316 316 314 312 312 312 311 312 312 311 310 308 308 311
188 203 220 236 231 214 206 207 201 199 208 203 192 215 237 221 214 216 203 207 220 210 173 170 183 189 186 181 157 138 148 175 214 222 206 169 163 216 227 232 242 244 83 259 253 251 256 244 126 136 145 150 151 153 154 153 153 153 151 157 178 200 285 332 327 327 326 321 317 315 314 314 315 316 316 314 312 313 313 312 312 313 313 312 312 313 315
181 200 204 218 222 202 189 198 202 201 209 218 212 220 229 223 221 225 198 184 188 180 168 176 188 189 180 174 173 179 165 149 169 223 214 161 196 227 224 213 251 255 249 249 247 243 231 145 128 137 145 148 148 152 155 156 158 158 158 172 202 235 312 323 320 320 321 320 318 315 314 315 316 315 314 314 314 313 312 312 313 315 316 316 317 317 316
198 205 198 206 253 222 208 209 206 202 209 215 215 224 239 249 247 225 185 179 180 174 175 187 194 189 177 164 148 186 184 168 168 202 210 194 216 250 310 4 305 252 252 252 250 241 159 127 129 137 144 147 150 155 158 159 163 165 165 184 240 291 305 306 313 321 321 317 315 313 312 313 314 313 314 314 313 313 313 312 312 315 318 317 316 315 315
223 218 207 203 224 223 220 224 225 224 226 225 222 225 229 235 225 171 182 186 182 176 177 181 179 168 166 169 173 200 201 193 179 180 200 216 232 235 251 265 251 246 249 251 259 41 87 111 125 134 142 148 152 155 155 157 168 179 187 219 277 295 295 300 311 319 317 312 310 309 308 310 311 312 312 312 312 313 314 312 313 316 317 316 317 319 318
227 227 219 209 202 211 217 220 229 236 238 239 236 229 216 182 164 227 231 213 195 189 181 176 169 156 158 178 196 203 192 194 197 185 193 237 255 221 190 215 231 231 233 228 103 85 94 112 123 132 142 150 154 156 155 159 180 212 234 255 273 285 294 302 308 311 312 313 310 305 304 306 308 309 311 312 313 313 313 313 315 316 315 317 323 325 324
236 252 244 224 222 232 228 222 228 240 239 233 233 234 227 214 220 226 216 199 195 192 178 175 183 180 155 165 192 201 174 178 198 188 177 216 249 233 203 224 234 223 218 182 103 106 110 110 114 128 144 150 152 158 164 179 213 240 254 267 277 285 292 298 301 303 306 307 305 303 304 306 308 311 312 312 312 312 313 314 316 316 318 321 325 327 330
233 256 246 224 223 232 219 205 209 232 233 218 209 215 234 242 225 195 181 191 195 176 159 172 195 193 153 158 205 210 176 178 214 219 194 208 236 224 210 232 249 222 160 82 79 95 108 114 121 134 146 152 162 185 209 240 258 264 267 272 277 282 288 292 296 299 301 303 303 303 303 304 306 310 311 311 311 311 312 313 315 318 322 325 325 328 336
225 242 241 236 246 266 270 254 255 253 230 209 201 204 216 229 218 180 173 195 202 182 171 188 202 190 161 196 224 210 165 181 209 218 205 209 228 226 218 237 16 62 77 77 80 92 100 102 107 115 119 124 179 267 275 274 272 272 277 283 286 287 288 290 291 293 295 300 303 302 301 302 304 306 307 309 310 310 310 312 318 326 330 328 326 329 335
218 229 242 248 257 269 278 281 280 270 245 226 245 220 199 189 154 139 158 187 201 192 187 195 199 183 167 204 217 208 176 188 211 224 216 208 211 212 122 55 46 54 62 67 80 85 71 65 69 79 81 73 293 260 268 272 269 268 274 282 286 287 290 293 293 292 293 296 299 298 298 301 302 303 304 307 310 311 312 314 319 326 329 326 324 330 337
Height
1545 1541 1538 1534 1530 1526 1522 1517 1512 1509 1506 1505 1504 1503 1502 1501 1498 1496 1497 1499 1499 1501 1500 1495 1492 1489 1486 1481 1479 1480 1477 1474 1476 1476 1475 1475 1474 1474 1476 1475 1475 1475 1473 1471 1469 1470 1475 1475 1476 1481 1482 1483 1485 1484 1483 1483 1481 1482 1486 1486 1483 1486 1495 1504 1504 1494 1486 1478 1473 1476 1477 1478 1484 1486 1486 1491 1495 1497 1501 1505 1504 1503 1506 1501 1502 1530 1546
1545 1542 1538 1534 1530 1527 1523 1519 1514 1510 1507 1505 1504 1504 1502 1499 1497 1496 1497 1498 1499 1500 1500 1498 1494 1487 1481 1479 1481 1481 1478 1477 1478 1478 1478 1477 1476 1479 1480 1478 1478 1477 1474 1475 1474 1475 1480 1483 1479 1478 1483 1487 1486 1483 1485 1484 1481 1484 1490 1490 1490 1493 1497 1504 1512 1511 1506 1501 1496 1493 1487 1484 1489 1489 1487 1493 1495 1495 1499 1498 1499 1506 1508 1505 1513 1536 1543
1546 1542 1538 1535 1531 1527 1523 1520 1516 1512 1509 1506 1505 1504 1502 1499 1496 1494 1496 1498 1498 1497 1494 1494 1496 1490 1484 1483 1483 1483 1483 1481 1480 1479 1479 1477 1476 1480 1481 1478 1478 1477 1476 1480 1479 1478 1484 1488 1484 1480 1483 1485 1485 1485 1486 1485 1484 1486 1490 1488 1488 1496 1499 1502 1515 1524 1524 1522 1518 1512 1502 1494 1492 1490 1489 1494 1496 1499 1505 1504 1508 1516 1514 1511 1521 1534 1534
1546 1542 1539 1535 1531 1527 1523 1520 1517 1513 1510 1507 1505 1504 1502 1500 1497 1493 1494 1495 1496 1494 1489 1491 1495 1491 1487 1488 1485 1485 1486 1485 1481 1480 1481 1479 1477 1479 1480 1477 1478 1480 1481 1486 1487 1484 1483 1486 1487 1486 1485 1486 1486 1487 1487 1488 1489 1490 1491 1489 1489 1496 1499 1497 1506 1515 1516 1516 1509 1502 1500 1501 1500 1496 1493 1496 1499 1501 1504 1507 1516 1521 1517 1520 1528 1528 1526
1547 1543 1540 1536 1532 1528 1524 1520 1517 1514 1511 1508 1505 1504 1502 1501 1499 1494 1493 1494 1493 1492 1489 1488 1488 1484 1486 1491 1489 1487 1488 1486 1485 1484 1483 1482 1481 1481 1481 1480 1483 1486 1487 1490 1493 1490 1486 1487 1489 1488 1487 1487 1487 1488 1487 1488 1491 1491 1490 1490 1491 1499 1502 1496 1497 1502 1502 1501 1499 1496 1498 1502 1503 1502 1500 1501 1501 1503 1507 1512 1518 1517 1519 1528 1528 1521 1523
1548 1544 1541 1537 1533 1529 1525 1521 1517 1514 1512 1509 1507 1505 1503 1503 1501 1496 1495 1495 1492 1491 1489 1486 1483 1481 1486 1490 1488 1489 1491 1490 1491 1489 1484 1483 1483 1484 1487 1486 1486 1488 1490 1493 1495 1493 1492 1493 1491 1489 1489 1487 1487 1489 1487 1486 1490 1491 1488 1487 1490 1501 1505 1496 1494 1498 1496 1494 1497 1498 1499 1502 1502 1503 1505 1505 1505 1508 1512 1514 1515 1515 1521 1527 1522 1520 1526
1548 1545 1542 1538 1534 1531 1526 1522 1519 1515 1513 1511 1510 1508 1506 1505 1504 1500 1499 1497 1493 1491 1488 1486 1484 1483 1487 1490 1488 1490 1493 1493 1492 1490 1488 1488 1486 1487 1492 1492 1489 1488 1489 1493 1496 1497 1499 1501 1496 1492 1492 1491 1489 1491 1489 1487 1488 1488 1487 1487 1490 1501 1506 1497 1494 1499 1497 1495 1498 1499 1500 1504 1504 1504 1506 1507 1507 1509 1512 1513 1513 1515 1519 1519 1517 1521 1528
1550 1546 1543 1539 1536 1532 1528 1524 1521 1517 1514 1512 1512 1512 1511 1511 1510 1506 1503 1501 1495 1491 1487 1485 1486 1485 1489 1494 1491 1487 1492 1494 1491 1489 1492 1496 1492 1489 1492 1494 1491 1491 1490 1493 1498 1498 1499 1502 1500 1496 1497 1496 1494 1494 1493 1491 1489 1489 1490 1490 1492 1501 1506 1498 1497 1505 1501 1494 1496 1500 1502 1506 1506 1505 1506 1508 1509 1509 1510 1512 1514 1517 1522 1521 1519 1524 1529
1551 1547 1544 1541 1537 1534 1530 1526 1523 1519 1517 1514 1514 1515 1514 1514 1514 1511 1509 1505 1498 1492 1486 1485 1489 1490 1491 1496 1493 1489 1491 1491 1490 1491 1492 1495 1495 1493 1493 1494 1491 1490 1492 1495 1499 1498 1496 1498 1498 1496 1497 1498 1496 1495 1494 1493 1494 1493 1493 1494 1494 1499 1502 1497 1499 1510 1504 1492 1495 1501 1501 1503 1507 1506 1507 1509 1511 1512 1512 1512 1514 1520 1526 1526 1524 1527 1530
1552 1549 1546 1542 1539 1536 1532 1529 1525 1522 1520 1517 1516 1517 1516 1514 1513 1512 1512 1508 1500 1494 1489 1487 1491 1493 1491 1491 1491 1491 1491 1489 1492 1498 1495 1493 1496 1495 1494 1494 1493 1493 1496 1499 1500 1499 1498 1498 1498 1497 1497 1495 1494 1494 1493 1493 1497 1496 1495 1496 1495 1497 1502 1499 1501 1510 1506 1495 1496 1500 1502 1510 1516 1511 1507 1508 1510 1513 1513 1512 1514 1518 1523 1527 1530 1529 1526
1553 1550 1547 1544 1541 1538 1534 1531 1528 1525 1522 1520 1519 1519 1518 1516 1515 1513 1512 1510 1502 1494 1490 1490 1493 1493 1491 1490 1490 1490 1491 1490 1493 1499 1499 1495 1496 1497 1495 1496 1496 1497 1500 1501 1500 1500 1500 1499 1498 1497 1497 1495 1493 1493 1493 1492 1494 1496 1496 1497 1496 1497 1503 1502 1501 1508 1509 1498 1495 1502 1514 1525 1523 1511 1505 1508 1511 1514 1516 1516 1516 1517 1520 1524 1527 1525 1521
1554 1551 1548 1545 1542 1540 1537 1534 1531 1528 1526 1524 1522 1522 1521 1520 1518 1515 1514 1513 1505 1496 1492 1492 1492 1492 1491 1491 1491 1490 1491 1492 1493 1497 1499 1498 1498 1499 1498 1498 1500 1501 1501 1501 1500 1500 1499 1498 1497 1495 1494 1494 1493 1492 1492 1493 1493 1494 1493 1495 1497 1499 1502 1502 1501 1506 1508 1502 1504 1519 1530 1526 1515 1507 1505 1508 1510 1512 1514 1515 1514 1515 1519 1521 1522 1523 1523
1555 1552 1550 1547 1544 1541 1539 1536 1534 1531 1529 1527 1525 1523 1523 1521 1519 1518 1516 1515 1509 1502 1497 1494 1492 1492 1492 1491 1491 1491 1493 1497 1498 1499 1500 1499 1499 1500 1500 1501 1502 1502 1502 1501 1500 1500 1499 1498 1498 1498 1495 1493 1493 1493 1492 1492 1494 1493 1491 1493 1497 1500 1502 1502 1501 1505 1509 1508 1513 1526 1529 1516 1508 1510 1509 1509 1512 1513 1517 1519 1516 1515 1518 1520 1522 1524 1524
1555 1553 1550 1548 1545 1543 1540 1537 1535 1533 1530 1529 1526 1524 1524 1523 1521 1519 1518 1517 1513 1506 1502 1500 1497 1495 1495 1493 1492 1494 1497 1499 1501 1501 1500 1500 1499 1500 1502 1504 1503 1503 1503 1502 1501 1501 1501 1501 1503 1504 1501 1500 1503 1502 1497 1494 1495 1495 1494 1495 1497 1500 1504 1507 1507 1506 1509 1512 1513 1515 1518 1517 1517 1516 1512 1512 1516 1517 1521 1526 1523 1518 1519 1522 1524 1526 1526
1556 1554 1551 1549 1546 1544 1542 1539 1536 1534 1532 1530 1527 1525 1525 1524 1522 1521 1520 1520 1517 1510 1506 1507 1506 1501 1498 1497 1497 1497 1498 1498 1498 1499 1500 1501 1500 1501 1504 1504 1504 1504 1503 1502 1501 1500 1501 1505 1508 1509 1508 1508 1509 1507 1501 1498 1497 1496 1497 1497 1497 1500 1503 1510 1514 1510 1506 1512 1516 1515 1521 1529 1527 1518 1513 1514 1516 1516 1518 1524 1527 1524 1523 1525 1527 1527 1528
1556 1554 1552 1550 1547 1545 1543 1540 1537 1535 1533 1531 1529 1527 1525 1525 1523 1521 1520 1520 1519 1515 1512 1511 1511 1506 1502 1501 1501 1501 1500 1499 1500 1500 1499 1499 1500 1502 1505 1505 1505 1505 1504 1502 1501 1501 1502 1506 1508 1508 1507 1505 1506 1508 1507 1504 1502 1499 1498 1497 1498 1501 1502 1506 1514 1513 1509 1514 1520 1519 1526 1532 1525 1516 1514 1515 1517 1516 1517 1525 1533 1530 1527 1528 1529 1529 1530
1557 1555 1553 1550 1548 1546 1544 1541 1538 1536 1534 1531 1530 1528 1526 1525 1524 1522 1521 1520 1519 1517 1515 1514 1512 1509 1506 1506 1505 1504 1503 1502 1503 1504 1503 1502 1501 1501 1504 1505 1505 1505 1504 1503 1502 1503 1506 1507 1505 1505 1505 1501 1503 1511 1511 1508 1507 1506 1503 1502 1504 1505 1504 1507 1513 1514 1512 1514 1516 1519 1527 1528 1520 1516 1518 1518 1518 1517 1522 1535 1540 1533 1529 1531 1531 1530 1531
1557 1555 1553 1551 1549 1547 1544 1542 1539 1537 1535 1533 1531 1529 1528 1527 1526 1523 1522 1522 1520 1517 1516 1516 1515 1512 1512 1512 1510 1508 1507 1506 1506 1506 1504 1502 1502 1502 1504 1505 1505 1505 1505 1505 1505 1507 1508 1507 1503 1505 1505 1500 1501 1509 1511 1510 1511 1509 1507 1508 1510 1509 1508 1510 1512 1511 1510 1512 1514 1521 1529 1526 1518 1519 1520 1519 1519 1522 1531 1541 1540 1532 1531 1532 1531 1531 1532
1557 1555 1554 1551 1550 1547 1545 1543 1541 1538 1536 1534 1532 1531 1529 1528 1527 1525 1523 1523 1522 1519 1518 1518 1517 1516 1515 1514 1512 1511 1511 1510 1510 1508 1506 1505 1506 1505 1504 1505 1506 1505 1504 1504 1506 1507 1508 1506 1500 1501 1505 1504 1503 1506 1508 1509 1510 1510 1511 1514 1515 1514 1512 1511 1511 1510 1509 1509 1512 1523 1531 1527 1520 1521 1521 1520 1525 1532 1537 1537 1533 1532 1533 1532 1532 1533 1532
1557 1555 1554 1552 1550 1548 1546 1544 1542 1539 1537 1535 1533 1532 1531 1530 1528 1527 1526 1525 1524 1521 1520 1519 1519 1519 1518 1517 1516 1515 1514 1513 1513 1512 1510 1511 1510 1509 1509 1510 1508 1506 1505 1507 1508 1507 1507 1505 1500 1498 1501 1504 1505 1505 1507 1509 1509 1509 1513 1517 1517 1517 1517 1515 1513 1512 1511 1510 1516 1531 1538 1530 1521 1522 1524 1524 1529 1535 1535 1532 1531 1533 1533 1532 1533 1533 1532
1557 1555 1554 1552 1550 1549 1547 1544 1543 1541 1538 1536 1535 1533 1532 1531 1529 1528 1527 1527 1525 1523 1521 1522 1521 1520 1520 1519 1519 1518 1517 1517 1517 1516 1515 1514 1512 1512 1514 1514 1510 1507 1507 1509 1509 1505 1503 1503 1502 1499 1499 1501 1505 1508 1509 1511 1512 1510 1510 1514 1517 1517 1519 1520 1519 1518 1519 1521 1527 1534 1534 1526 1522 1525 1528 1529 1531 1533 1532 1531 1532 1532 1533 1533 1534 1533 1533
1557 1555 1554 1553 1551 1549 1547 1545 1543 1541 1539 1537 1536 1534 1532 1531 1530 1529 1528 1527 1526 1524 1523 1522 1522 1521 1521 1520 1520 1520 1519 1519 1519 1518 1518 1516 1514 1513 1514 1512 1510 1510 1511 1511 1510 1508 1505 1503 1502 1502 1501 1501 1505 1508 1508 1512 1517 1514 1512 1515 1518 1518 1518 1520 1521 1520 1521 1526 1528 1527 1526 1524 1525 1527 1528 1530 1532 1532 1532 1533 1532 1533 1534 1534 1533 1533 1533
1556 1555 1553 1552 1551 1549 1548 1546 1544 1542 1540 1538 1536 1534 1533 1531 1529 1529 1528 1527 1527 1525 1523 1522 1522 1521 1520 1520 1520 1520 1520 1519 1519 1519 1519 1518 1516 1513 1512 1512 1513 1514 1514 1514 1514 1513 1510 1507 1504 1506 1506 1503 1504 1508 1510 1511 1514 1513 1513 1515 1516 1515 1515 1518 1520 1520 1520 1523 1524 1522 1524 1527 1527 1528 1530 1532 1533 1532 1533 1533 1533 1534 1534 1534 1534 1534 1533
1555 1554 1553 1552 1551 1549 1548 1546 1544 1543 1541 1539 1537 1536 1534 1532 1531 1530 1529 1528 1527 1525 1522 1521 1519 1519 1519 1520 1520 1520 1520 1519 1519 1519 1519 1519 1518 1515 1514 1516 1516 1515 1515 1516 1516 1514 1513 1510 1507 1509 1510 1508 1508 1511 1511 1510 1510 1510 1511 1513 1514 1514 1515 1516 1518 1521 1524 1526 1524 1521 1524 1527 1528 1529 1531 1532 1532 1533 1534 1534 1534 1535 1535 1534 1534 1533 1532
1554 1553 1553 1552 1550 1549 1548 1546 1545 1543 1541 1540 1538 1537 1535 1534 1532 1531 1530 1529 1529 1527 1524 1521 1518 1519 1520 1520 1520 1520 1520 1519 1520 1520 1519 1520 1519 1518 1517 1518 1518 1517 1517 1517 1515 1514 1514 1512 1509 1510 1511 1510 1510 1510 1509 1511 1513 1512 1512 1514 1516 1517 1517 1517 1518 1520 1523 1525 1524 1522 1524 1528 1529 1530 1531 1531 1532 1534 1534 1534 1535 1535 1534 1534 1533 1532 1532
1553 1552 1552 1551 1550 1549 1547 1546 1545 1543 1542 1540 1538 1537 1536 1534 1533 1532 1532 1530 1529 1528 1525 1521 1518 1519 1520 1520 1520 1520 1520 1520 1520 1520 1519 1520 1520 1519 1519 1519 1519 1518 1517 1517 1516 1514 1513 1512 1510 1509 1510 1510 1510 1510 1510 1511 1513 1513 1514 1516 1516 1516 1518 1518 1518 1519 1521 1523 1524 1525 1526 1528 1529 1530 1531 1532 1533 1534 1534 1535 1535 1534 1534 1533 1532 1532 1532
1552 1551 1551 1550 1549 1548 1547 1546 1544 1543 1542 1540 1539 1537 1536 1535 1534 1533 1533 1531 1530 1528 1525 1522 1519 1519 1520 1519 1520 1520 1520 1520 1520 1520 1520 1520 1520 1520 1520 1519 1519 1518 1517 1516 1515 1514 1514 1513 1510 1508 1509 1510 1510 1510 1510 1511 1511 1512 1514 1515 1515 1517 1520 1519 1519 1522 1526 1528 1528 1529 1529 1530 1530 1530 1531 1532 1533 1534 1534 1534 1534 1533 1533 1533 1532 1531 1530
1550 1550 1550 1549 1548 1547 1546 1545 1544 1543 1542 1540 1539 1538 1536 1535 1535 1535 1534 1533 1532 1531 1530 1526 1522 1520 1520 1519 1520 1520 1520 1519 1520 1519 1519 1520 1520 1520 1520 1519 1519 1518 1516 1515 1515 1513 1512 1511 1510 1508 1509 1511 1512 1512 1512 1513 1513 1514 1515 1515 1516 1520 1522 1522 1523 1526 1529 1529 1529 1530 1531 1530 1530 1531 1532 1533 1533 1533 1534 1534 1533 1533 1533 1532 1532 1531 1529
1548 1548 1548 1548 1547 1546 1545 1544 1543 1542 1541 1540 1538 1537 1536 1536 1537 1536 1534 1533 1533 1532 1531 1528 1523 1519 1518 1518 1519 1520 1520 1520 1520 1519 1519 1520 1520 1519 1520 1520 1519 1517 1516 1515 1515 1513 1511 1511 1511 1511 1513 1514 1514 1513 1512 1513 1516 1518 1518 1518 1519 1521 1523 1525 1526 1527 1528 1529 1531 1532 1532 1531 1531 1532 1533 1533 1533 1534 1534 1534 1533 1533 1532 1532 1531 1530 1528
1546 1546 1546 1546 1546 1545 1544 1543 1543 1542 1541 1540 1538 1537 1537 1537 1536 1535 1534 1533 1533 1532 1531 1529 1525 1521 1518 1517 1518 1519 1520 1520 1520 1519 1519 1519 1519 1519 1519 1519 1519 1518 1516 1515 1515 1513 1512 1513 1514 1515 1516 1516 1515 1514 1512 1512 1516 1520 1520 1520 1522 1523 1524 1526 1527 1528 1530 1532 1532 1533 1533 1532 1532 1532 1532 1532 1533 1534 1534 1533 1533 1533 1532 1531 1530 1528 1527
1544 1544 1545 1545 1544 1544 1543 1542 1542 1541 1541 1540 1539 1538 1537 1536 1535 1535 1534 1533 1532 1532 1532 1530 1527 1522 1518 1517 1518 1519 1519 1519 1519 1519 1519 1519 1519 1519 1519 1519 1518 1518 1517 1515 1515 1514 1513 1514 1515 1516 1517 1517 1517 1516 1513 1512 1517 1522 1523 1523 1525 1525 1525 1527 1528 1529 1531 1532 1532 1532 1532 1532 1532 1532 1532 1532 1533 1533 1533 1533 1532 1532 1531 1529 1528 1527 1525
1542 1542 1543 1543 1543 1542 1542 1541 1540 1540 1540 1539 1539 1538 1536 1536 1535 1534 1534 1533 1532 1532 1532 1530 1527 1522 1517 1515 1516 1518 1518 1519 1519 1518 1519 1518 1518 1518 1519 1518 1518 1518 1517 1516 1516 1515 1514 1514 1514 1515 1517 1518 1518 1517 1513 1514 1520 1523 1523 1524 1526 1527 1527 1528 1530 1530 1531 1532 1532 1532 1531 1532 1532 1533 1533 1533 1533 1533 1533 1532 1531 1530 1529 1528 1526 1525 1524
1539 1540 1541 1541 1541 1541 1540 1540 1539 1539 1538 1538 1537 1536 1535 1535 1535 1534 1533 1532 1532 1532 1532 1531 1527 1523 1518 1515 1516 1516 1517 1518 1518 1518 1517 1516 1516 1517 1517 1517 1517 1518 1518 1518 1516 1515 1515 1514 1512 1514 1517 1519 1519 1517 1516 1517 1520 1520 1521 1523 1526 1528 1529 1530 1531 1532 1533 1533 1533 1532 1532 1533 1533 1533 1533 1533 1533 1533 1532 1531 1530 1529 1528 1526 1525 1524 1523
1537 1538 1539 1539 1539 1539 1539 1538 1538 1537 1537 1537 1536 1535 1534 1534 1534 1533 1533 1532 1531 1531 1531 1530 1527 1523 1520 1516 1514 1515 1516 1516 1516 1516 1516 1516 1517 1517 1516 1516 1517 1517 1518 1517 1516 1515 1515 1513 1512 1515 1517 1518 1519 1520 1519 1518 1519 1520 1522 1525 1527 1529 1530 1531 1531 1532 1533 1533 1534 1534 1533 1533 1533 1533 1533 1533 1532 1532 1531 1530 1529 1528 1527 1526 1525 1524 1523
1535 1536 1537 1537 1537 1537 1536 1536 1536 1536 1536 1536 1535 1534 1534 1533 1533 1533 1532 1532 1531 1530 1529 1528 1526 1524 1522 1518 1514 1513 1514 1514 1514 1515 1516 1517 1518 1517 1516 1515 1516 1517 1517 1517 1516 1515 1515 1514 1514 1516 1516 1516 1518 1521 1520 1519 1521 1523 1524 1526 1528 1529 1530 1530 1531 1532 1533 1533 1534 1534 1533 1533 1532 1532 1532 1532 1531 1530 1530 1529 1528 1527 1526 1525 1524 1523 1522
1533 1534 1534 1535 1535 1535 1534 1534 1534 1534 1534 1534 1533 1533 1533 1533 1532 1532 1531 1531 1531 1530 1528 1526 1523 1521 1521 1521 1518 1514 1513 1513 1514 1516 1517 1517 1517 1517 1516 1514 1515 1516 1516 1515 1514 1513 1514 1515 1516 1517 1516 1517 1520 1521 1520 1521 1523 1524 1525 1528 1529 1530 1530 1531 1532 1532 1533 1533 1533 1532 1532 1532 1531 1531 1531 1531 1530 1529 1529 1528 1527 1526 1525 1524 1523 1522 1521
1531 1532 1532 1533 1533 1533 1532 1532 1532 1532 1533 1533 1532 1532 1532 1531 1531 1531 1530 1529 1529 1529 1528 1527 1523 1518 1517 1519 1518 1515 1514 1514 1514 1515 1516 1516 1516 1516 1516 1515 1515 1516 1515 1514 1512 1512 1514 1515 1516 1516 1517 1518 1520 1521 1521 1523 1524 1525 1526 1528 1529 1530 1531 1532 1532 1532 1532 1532 1532 1532 1532 1532 1531 1531 1531 1530 1529 1528 1528 1526 1526 1525 1525 1524 1522 1521 1520
1529 1530 1531 1531 1532 1532 1531 1530 1530 1531 1531 1532 1532 1531 1531 1530 1530 1529 1528 1528 1527 1526 1526 1526 1523 1519 1517 1517 1516 1515 1515 1514 1513 1513 1514 1515 1515 1515 1515 1514 1515 1515 1515 1512 1510 1512 1513 1514 1515 1515 1516 1518 1520 1521 1523 1523 1524 1525 1527 1528 1529 1530 1531 1531 1532 1532 1532 1532 1531 1532 1532 1531 1531 1530 1530 1529 1528 1527 1526 1525 1525 1525 1524 1523 1522 1520 1519
1527 1528 1529 1530 1531 1531 1530 1529 1529 1531 1531 1531 1532 1531 1529 1529 1529 1527 1525 1525 1525 1524 1522 1521 1520 1518 1516 1515 1515 1515 1515 1514 1513 1513 1514 1515 1516 1517 1516 1515 1515 1516 1516 1513 1512 1512 1513 1513 1512 1513 1515 1517 1519 1521 1522 1523 1524 1526 1527 1528 1529 1530 1531 1531 1532 1532 1532 1532 1532 1532 1532 1531 1530 1530 1529 1528 1527 1526 1526 1525 1525 1524 1523 1522 1520 1519 1518
1526 1527 1528 1529 1529 1529 1529 1529 1529 1530 1531 1531 1531 1530 1528 1527 1525 1522 1521 1521 1521 1518 1517 1516 1515 1515 1514 1513 1513 1514 1514 1514 1513 1513 1514 1516 1516 1517 1517 1516 1516 1516 1515 1513 1511 1511 1511 1511 1510 1511 1514 1516 1519 1521 1522 1523 1524 1525 1527 1528 1529 1530 1530 1531 1531 1531 1531 1531 1531 1531 1531 1530 1529 1529 1528 1527 1526 1526 1525 1524 1524 1522 1521 1520 1519 1518 1517
1526 1527 1527 1528 1528 1528 1528 1528 1529 1530 1530 1530 1529 1528 1526 1524 1522 1518 1518 1519 1516 1512 1511 1511 1511 1511 1512 1512 1512 1513 1514 1515 1515 1514 1515 1515 1516 1517 1516 1515 1516 1518 1517 1512 1509 1509 1510 1510 1510 1511 1513 1516 1519 1521 1522 1523 1524 1525 1527 1528 1529 1530 1530 1530 1531 1531 1530 1530 1530 1530 1530 1529 1528 1528 1527 1527 1526 1525 1524 1523 1522 1521 1520 1519 1518 1517 1516
1525 1525 1525 1526 1527 1527 1528 1528 1528 1529 1529 1528 1527 1525 1521 1519 1518 1516 1516 1515 1511 1507 1507 1509 1509 1509 1509 1510 1511 1513 1514 1515 1515 1515 1514 1515 1517 1517 1515 1514 1516 1519 1516 1510 1506 1507 1508 1509 1510 1513 1515 1518 1520 1521 1522 1523 1524 1526 1527 1528 1528 1529 1530 1530 1530 1530 1530 1529 1529 1529 1528 1528 1528 1527 1526 1526 1525 1524 1523 1522 1521 1520 1519 1518 1516 1515 1514
1523 1525 1526 1527 1527 1527 1528 1527 1527 1527 1526 1525 1527 1527 1522 1516 1513 1512 1512 1510 1507 1504 1505 1507 1508 1508 1509 1510 1511 1513 1515 1516 1515 1514 1515 1516 1517 1517 1517 1517 1517 1515 1510 1507 1507 1508 1507 1507 1510 1514 1517 1518 1519 1521 1522 1523 1524 1525 1527 1528 1528 1529 1529 1529 1529 1529 1529 1529 1528 1528 1527 1527 1527 1526 1526 1525 1524 1523 1522 1521 1520 1518 1517 1516 1515 1514 1513
1524 1525 1527 1527 1526 1526 1527 1525 1523 1524 1524 1523 1524 1525 1522 1515 1510 1508 1507 1506 1505 1503 1504 1506 1507 1508 1509 1510 1511 1513 1515 1515 1515 1515 1514 1515 1516 1517 1519 1519 1515 1509 1507 1509 1510 1508 1506 1506 1509 1513 1515 1517 1519 1521 1522 1523 1524 1525 1526 1527 1528 1528 1528 1528 1529 1528 1528 1528 1528 1527 1526 1526 1526 1525 1525 1524 1523 1522 1520 1519 1518 1517 1516 1515 1514 1513 1512
1524 1525 1526 1526 1524 1524 1525 1523 1519 1519 1520 1519 1516 1515 1513 1508 1504 1502 1502 1503 1502 1502 1504 1505 1506 1508 1509 1510 1512 1512 1512 1514 1516 1515 1513 1514 1516 1516 1515 1513 1510 1507 1509 1511 1510 1507 1506 1508 1510 1513 1515 1517 1519 1521 1522 1523 1524 1525 1525 1526 1527 1527 1527 1528 1528 1527 1527 1527 1527 1526 1526 1525 1525 1524 1523 1522 1522 1521 1519 1518 1517 1516 1515 1514 1513 1512 1511
1524 1524 1524 1524 1523 1522 1522 1520 1517 1514 1513 1511 1510 1508 1506 1502 1500 1499 1500 1501 1502 1503 1505 1505 1505 1506 1508 1510 1512 1513 1512 1513 1515 1514 1513 1515 1518 1516 1512 1510 1511 1512 1513 1513 1509 1505 1505 1508 1510 1512 1515 1517 1519 1520 1522 1523 1524 1525 1525 1525 1526 1526 1526 1527 1526 1526 1526 1526 1526 1525 1525 1524 1524 1523 1522 1521 1520 1519 1518 1517 1516 1515 1514 1513 1512 1511 1510
1523 1521 1521 1521 1522 1520 1518 1516 1513 1510 1507 1505 1505 1504 1502 1501 1501 1501 1501 1501 1502 1503 1504 1505 1506 1507 1509 1510 1512 1512 1511 1511 1512 1513 1512 1513 1514 1513 1511 1513 1515 1515 1515 1514 1510 1507 1507 1510 1512 1514 1516 1518 1519 1520 1521 1522 1524 1524 1525 1525 1525 1525 1525 1525 1525 1525 1526 1525 1525 1524 1524 1524 1523 1522 1521 1520 1519 1518 1517 1516 1515 1514 1513 1512 1511 1510 1509
1521 1520 1519 1518 1518 1516 1513 1511 1509 1507 1505 1503 1501 1499 1499 1501 1503 1503 1503 1503 1503 1503 1504 1505 1506 1508 1509 1510 1511 1511 1510 1511 1514 1514 1513 1512 1513 1513 1515 1517 1517 1513 1509 1509 1509 1509 1510 1512 1514 1516 1517 1519 1520 1520 1521 1522 1523 1524 1524 1524 1525 1525 1524 1524 1525 1525 1525 1524 1524 1523 1523 1522 1522 1521 1520 1519 1518 1517 1516 1515 1514 1513 1512 1511 1509 1509 1509
1519 1518 1517 1515 1513 1511 1509 1508 1507 1504 1502 1500 1499 1498 1498 1500 1502 1503 1503 1504 1504 1504 1505 1506 1507 1508 1509 1510 1510 1510 1511 1512 1514 1513 1513 1514 1515 1514 1516 1519 1517 1511 1504 1502 1504 1508 1511 1513 1515 1517 1518 1519 1520 1520 1520 1521 1522 1522 1523 1523 1524 1524 1524 1524 1524 1524 1523 1523 1523 1522 1522 1521 1520 1520 1519 1518 1517 1515 1514 1513 1513 1512 1511 1510 1508 1508 1507
1519 1517 1515 1512 1509 1505 1503 1503 1503 1501 1498 1497 1498 1499 1499 1499 1500 1501 1503 1504 1505 1506 1506 1508 1508 1508 1509 1510 1511 1511 1511 1511 1511 1512 1514 1515 1513 1511 1512 1514 1511 1505 1500 1501 1504 1508 1512 1514 1515 1517 1518 1519 1520 1520 1520 1520 1521 1522 1522 1523 1523 1523 1523 1523 1523 1522 1522 1522 1521 1521 1520 1520 1519 1518 1518 1517 1515 1514 1513 1512 1511 1511 1510 1509 1508 1507 1506
1518 1516 1513 1510 1507 1503 1501 1501 1500 1498 1495 1494 1496 1497 1499 1499 1499 1500 1503 1505 1505 1506 1507 1507 1507 1507 1509 1512 1513 1512 1511 1510 1509 1510 1511 1510 1507 1506 1508 1509 1506 1502 1502 1504 1507 1510 1511 1513 1514 1515 1517 1518 1519 1519 1520 1520 1521 1521 1521 1522 1522 1522 1522 1521 1521 1521 1521 1520 1520 1520 1519 1518 1518 1517 1516 1515 1514 1513 1512 1511 1510 1509 1509 1508 1507 1506 1505
1516 1514 1512 1509 1507 1505 1504 1502 1500 1496 1494 1495 1496 1496 1498 1499 1500 1501 1503 1505 1505 1505 1506 1506 1506 1507 1510 1512 1510 1507 1508 1509 1509 1508 1507 1505 1503 1504 1506 1506 1505 1505 1506 1508 1509 1510 1512 1513 1514 1516 1517 1518 1519 1519 1520 1520 1520 1520 1520 1521 1521 1521 1520 1520 1520 1519 1519 1519 1519 1518 1517 1517 1516 1516 1515 1514 1513 1512 1511 1510 1509 1508 1508 1507 1505 1504 1504